CW6538 Cattolica IT current weather conditions

sailwx.info

Wind from 219 at 7 knots gusting 13

Air temperature 23.9° C
Dewpoint 13.1° C

Last reported at 2016-May-29 06:53 UTC.
Time now 2016-May-29 07:46 UTC

Location: N 43°58' E 012°44'.
View on Google Maps.

See reports from other nearby stations

  
Tides and Currents Weather Stations Pressure Air Temp Water Temp Dewpoint Dewpoint Depression Visibility Wind Speed Wind Dir Waves Ship Positions
date/time (UTC)wind fromknots sea level pressurealtimeterstation pressurevisibilityair tempwater tempwave heightnotes
2016-May-29 06:53 219 7 gusting 13 23.9
2016-May-29 06:49 214 6 gusting 11 23.9
2016-May-29 06:43 202 6 gusting 9 23.9
2016-May-29 06:39 191 4 gusting 12 23.9
2016-May-29 06:34 202 6 gusting 15 23.9
2016-May-29 06:29 204 8 gusting 15 23.9
2016-May-29 06:24 199 5 gusting 9 23.9
2016-May-29 06:19 209 5 gusting 9 23.9
2016-May-29 06:14 209 5 gusting 8 23.3
2016-May-29 06:09 196 4 gusting 8 23.3
2016-May-29 06:03 189 3 gusting 6 23.3
2016-May-29 05:59 179 4 gusting 6 22.8
2016-May-29 05:54 199 3 gusting 6 22.8
2016-May-29 05:48 186 3 gusting 6 22.2
2016-May-29 05:38 185 3 gusting 4 21.7
2016-May-29 05:33 157 3 gusting 4 21.1
2016-May-29 05:28 173 2 gusting 5 21.1
2016-May-29 05:24 144 2 gusting 5 21.1
2016-May-29 05:19 138 0 gusting 7 21.1
2016-May-29 05:14 167 4 gusting 7 21.1
2016-May-29 05:09 199 3 gusting 6 21.1
2016-May-29 05:03 188 1 gusting 7 21.1
2016-May-29 04:58 161 3 gusting 7 21.1
2016-May-29 04:54 254 4 gusting 9 21.1
2016-May-29 04:48 207 5 gusting 9 21.1
2016-May-29 04:44 214 4 gusting 8 21.1
2016-May-29 04:39 239 4 gusting 8 20.6
2016-May-29 04:34 192 5 gusting 8 20.6
2016-May-29 04:29 167 4 gusting 6 20.6
2016-May-29 04:24 184 2 gusting 5 20.6
2016-May-29 04:18 161 1 gusting 5 20.6
2016-May-29 04:14 151 3 gusting 6 20.6
2016-May-29 04:09 171 5 gusting 6 20.6
2016-May-29 04:03 154 5 gusting 6 20.6
2016-May-29 03:58 161 4 gusting 6 20.6
2016-May-29 03:53 159 4 gusting 6 20.6
2016-May-29 03:49 135 4 gusting 6 20.6
2016-May-29 03:38 153 4 gusting 6 20.6
2016-May-29 03:34 181 4 gusting 6 20.6
2016-May-29 03:29 183 4 gusting 6 20.6
2016-May-29 03:23 176 3 gusting 5 20.0
2016-May-29 03:19 176 1 gusting 4 20.0
2016-May-29 03:13 176 3 gusting 4 20.0
2016-May-29 03:08 190 2 gusting 6 20.0
2016-May-29 03:03 190 2 gusting 6 20.0
2016-May-29 02:59 191 3 gusting 6 20.0
2016-May-29 02:54 198 3 gusting 6 20.0
2016-May-29 02:48 234 3 gusting 5 20.0
2016-May-29 02:43 173 20.0
2016-May-29 02:38 173 3 gusting 5 20.0
2016-May-29 02:34 178 2 gusting 5 20.0
2016-May-29 02:29 178 3 gusting 6 19.4
2016-May-29 02:24 173 3 gusting 7 19.4
2016-May-29 02:19 209 4 gusting 7 19.4
2016-May-29 02:14 230 4 gusting 7 18.9
2016-May-29 02:09 205 5 gusting 7 18.9
2016-May-29 02:03 213 4 gusting 6 18.9
2016-May-29 01:59 198 4 gusting 6 18.3
2016-May-29 01:54 203 2 gusting 6 18.3
2016-May-29 01:49 212 4 gusting 6 18.3
2016-May-29 01:44 210 1 gusting 6 18.9
2016-May-29 01:39 210 4 gusting 6 18.9
2016-May-29 01:33 178 1 gusting 5 18.9
2016-May-29 01:29 178 3 gusting 5 18.9
2016-May-29 01:19 178 3 gusting 5 18.9
2016-May-29 01:09 160 3 gusting 4 18.9
2016-May-29 01:03 160 2 gusting 4 19.4
2016-May-29 00:58 159 2 gusting 5 19.4
2016-May-29 00:54 160 4 gusting 5 19.4
2016-May-29 00:49 181 2 gusting 4 19.4
2016-May-29 00:44 181 2 gusting 4 19.4
2016-May-29 00:39 182 1 gusting 1 19.4
2016-May-29 00:33 182 20.0
2016-May-29 00:28 182 1 gusting 2 20.0
2016-May-29 00:24 126 0 gusting 1 20.0
2016-May-29 00:18 126 20.0
2016-May-29 00:13 126 1 gusting 3 20.0
2016-May-29 00:09 126 20.0
2016-May-29 00:04 126 20.0
2016-May-28 23:59 126 0 gusting 3 20.0
2016-May-28 23:54 126 0 gusting 3 20.6
2016-May-28 23:49 126 20.6
2016-May-28 23:43 126 20.6
2016-May-28 23:38 126 20.6
2016-May-28 23:34 126 20.6
2016-May-28 23:29 126 20.6
2016-May-28 23:23 126 20.6
2016-May-28 23:18 126 20.6
2016-May-28 23:14 126 20.6
2016-May-28 23:08 126 20.6
2016-May-28 23:03 126 20.6
2016-May-28 22:59 126 20.6
2016-May-28 22:53 126 20.6
2016-May-28 22:48 126 0 gusting 4 20.6
2016-May-28 22:44 151 0 gusting 3 20.6
2016-May-28 22:38 151 20.6
2016-May-28 22:34 151 1 gusting 3 20.6
2016-May-28 22:29 151 20.6
2016-May-28 22:24 151 20.6
2016-May-28 22:18 151 0 gusting 3 20.6
2016-May-28 22:14 151 20.6
2016-May-28 22:09 151 0 gusting 4 20.6
2016-May-28 22:04 163 2 gusting 4 21.1
2016-May-28 21:59 161 0 gusting 4 21.1
2016-May-28 21:49 157 0 gusting 4 21.1
2016-May-28 21:44 155 21.1
2016-May-28 21:39 170 21.1
2016-May-28 21:29 170 0 gusting 4 21.1
2016-May-28 21:24 171 0 gusting 4 21.1
2016-May-28 21:19 159 0 gusting 3 21.1
2016-May-28 21:14 159 0 gusting 3 21.7
2016-May-28 21:09 159 21.7
2016-May-28 21:04 159 21.7
2016-May-28 20:59 159 3 gusting 4 21.7
2016-May-28 20:49 291 21.7
2016-May-28 20:44 291 21.7
2016-May-28 20:39 291 21.7
2016-May-28 20:29 291 21.7
2016-May-28 20:24 291 21.7
2016-May-28 20:19 291 22.2
2016-May-28 20:14 291 0 gusting 3 22.2
2016-May-28 20:09 291 0 gusting 3 22.2
2016-May-28 20:04 292 22.2
2016-May-28 19:54 292 0 gusting 6 22.2
2016-May-28 19:49 278 3 gusting 6 22.2
2016-May-28 19:44 253 4 gusting 5 22.8
2016-May-28 19:39 240 1 gusting 5 22.8
2016-May-28 19:34 232 2 gusting 5 22.8
2016-May-28 19:29 246 3 gusting 5 22.8
2016-May-28 19:24 243 2 gusting 4 22.8
2016-May-28 19:19 061 0 gusting 3 22.8
2016-May-28 19:14 061 22.8
2016-May-28 19:09 061 22.8
2016-May-28 19:04 061 22.8
2016-May-28 18:59 061 23.3
2016-May-28 18:53 061 2 gusting 5 23.3
2016-May-28 18:44 061 2 gusting 4 23.3
2016-May-28 18:39 061 2 gusting 4 23.9
2016-May-28 18:34 061 23.9
2016-May-28 18:29 061 23.9
2016-May-28 18:24 061 23.9
2016-May-28 18:19 061 4 gusting 7 24.4
2016-May-28 18:14 055 2 gusting 4 24.4
2016-May-28 18:09 055 24.4
2016-May-28 18:04 055 24.4
2016-May-28 17:59 055 24.4
2016-May-28 17:54 055 2 gusting 5 24.4
2016-May-28 17:49 055 1 gusting 5 24.4
2016-May-28 17:44 056 2 gusting 4 24.4
2016-May-28 17:39 056 24.4
2016-May-28 17:34 056 24.4
2016-May-28 17:29 056 23.9
2016-May-28 17:24 056 1 gusting 6 23.9
2016-May-28 17:19 037 4 gusting 8 23.9
2016-May-28 17:14 046 5 gusting 8 23.9
2016-May-28 17:09 047 3 gusting 6 24.4
2016-May-28 17:04 040 4 gusting 5 24.4
2016-May-28 16:59 068 0 gusting 4 24.4
2016-May-28 16:54 068 1 gusting 6 24.4
2016-May-28 16:49 069 3 gusting 6 24.4
2016-May-28 16:44 065 5 gusting 6 25.0
2016-May-28 16:39 067 3 gusting 5 25.0
2016-May-28 16:34 050 3 gusting 6 25.0
2016-May-28 16:28 050 4 gusting 7 24.4
2016-May-28 16:24 019 4 gusting 8 24.4
2016-May-28 16:19 031 5 gusting 8 25.0
2016-May-28 16:14 038 6 gusting 8 25.0
2016-May-28 16:08 028 6 gusting 8 26.1
2016-May-28 16:04 024 1 gusting 5 26.1
2016-May-28 15:59 169 0 gusting 6 26.1
2016-May-28 15:54 148 4 gusting 6 26.1
2016-May-28 15:49 105 5 gusting 6 26.1
2016-May-28 15:44 128 3 gusting 6 26.1
2016-May-28 15:39 179 3 gusting 6 26.1
2016-May-28 15:34 152 1 gusting 7 26.1
2016-May-28 15:29 174 5 gusting 7 25.6
2016-May-28 15:24 151 5 gusting 7 26.1
2016-May-28 15:19 198 5 gusting 7 26.1
2016-May-28 15:14 175 5 gusting 8 26.7
2016-May-28 15:09 187 3 gusting 8 27.2
2016-May-28 15:04 096 3 gusting 6 27.2
2016-May-28 14:59 082 4 gusting 7 27.2
2016-May-28 14:54 056 4 gusting 9 27.2
2016-May-28 14:48 116 6 gusting 10 27.2
2016-May-28 14:39 092 6 gusting 11 27.2
2016-May-28 14:34 121 7 gusting 10 26.7
2016-May-28 14:29 171 6 gusting 10 27.2
2016-May-28 14:24 105 5 gusting 10 27.2
2016-May-28 14:19 119 6 gusting 9 27.2
2016-May-28 14:14 115 6 gusting 10 27.2
2016-May-28 14:08 102 7 gusting 12 27.2
2016-May-28 14:04 121 6 gusting 12 27.2
2016-May-28 13:59 124 6 gusting 12 27.2
2016-May-28 13:49 149 7 gusting 10 27.2
2016-May-28 13:44 096 6 gusting 13 27.2
2016-May-28 13:34 107 6 gusting 13 27.8
2016-May-28 13:24 053 5 gusting 12 27.2
2016-May-28 13:19 067 6 gusting 12 27.2
2016-May-28 13:14 124 6 gusting 11 26.7
2016-May-28 13:04 123 6 gusting 12 26.7
2016-May-28 12:58 086 6 gusting 9 26.7
2016-May-28 12:54 091 5 gusting 13 26.7
2016-May-28 12:49 117 6 gusting 13 26.7
2016-May-28 12:44 142 5 gusting 9 26.7
2016-May-28 12:39 138 6 gusting 10 26.1
2016-May-28 12:34 137 6 gusting 9 26.7
2016-May-28 12:29 082 4 gusting 8 26.7
2016-May-28 12:24 090 5 gusting 7 26.7
2016-May-28 12:19 094 5 gusting 8 26.7
2016-May-28 12:14 050 6 gusting 9 27.2
2016-May-28 12:08 029 6 gusting 8 26.7
2016-May-28 12:04 009 4 gusting 11 26.7
2016-May-28 11:59 079 6 gusting 12 26.1
2016-May-28 11:54 064 6 gusting 15 25.6
2016-May-28 11:49 051 10 gusting 15 25.0
2016-May-28 11:44 053 8 gusting 15 25.0
2016-May-28 11:39 032 9 gusting 15 24.4
2016-May-28 11:33 029 9 gusting 16 24.4
2016-May-28 11:29 038 10 gusting 16 24.4
2016-May-28 11:24 048 8 gusting 16 24.4
2016-May-28 11:19 024 11 gusting 16 24.4
2016-May-28 11:14 040 10 gusting 16 24.4
2016-May-28 11:09 035 9 gusting 15 24.4
2016-May-28 11:04 040 8 gusting 13 24.4
2016-May-28 10:59 065 8 gusting 13 24.4
2016-May-28 10:54 060 7 gusting 13 24.4
2016-May-28 10:49 036 9 gusting 13 24.4
2016-May-28 10:44 027 6 gusting 13 24.4
2016-May-28 10:38 076 9 gusting 16 23.9
2016-May-28 10:29 043 8 gusting 13 23.9
2016-May-28 10:19 042 9 gusting 13 23.9
2016-May-28 10:14 019 9 gusting 13 23.9
2016-May-28 10:09 015 8 gusting 13 23.9
2016-May-28 10:04 029 8 gusting 13 23.9
2016-May-28 09:54 036 7 gusting 13 23.9
2016-May-28 09:48 042 10 gusting 13 23.9
2016-May-28 09:43 035 6 gusting 13 23.3
2016-May-28 09:29 035 7 gusting 11 23.3
2016-May-28 09:24 015 5 gusting 12 23.3
2016-May-28 09:19 036 7 gusting 11 23.3
2016-May-28 09:14 038 6 gusting 13 23.3
2016-May-28 09:09 355 8 gusting 13 22.8
2016-May-28 09:04 026 7 gusting 11 23.3
2016-May-28 08:59 027 7 gusting 11 23.3
2016-May-28 08:54 017 6 gusting 13 23.3
2016-May-28 08:49 015 8 gusting 13 22.8
2016-May-28 08:44 020 7 gusting 13 22.8
2016-May-28 08:39 017 8 gusting 13 22.8
2016-May-28 08:34 046 6 gusting 12 22.8
2016-May-28 08:29 036 8 gusting 13 22.8
2016-May-28 08:24 061 7 gusting 12 22.8
2016-May-28 08:19 015 8 gusting 12 23.3
2016-May-28 08:14 042 6 gusting 13 23.3
2016-May-28 08:09 046 8 gusting 13 22.8
2016-May-28 08:04 055 7 gusting 12 22.8
2016-May-28 07:59 034 7 gusting 13 22.8
2016-May-28 07:54 016 7 gusting 13 22.8
2016-May-28 07:49 061 7 gusting 11 22.8
2016-May-28 07:44 057 6 gusting 11 22.8
2016-May-28 07:38 053 8 gusting 10 22.8
2016-May-28 07:33 043 6 gusting 10 22.8
2016-May-28 07:28 045 4 gusting 8 23.3
2016-May-28 07:23 051 5 gusting 9 22.8
2016-May-28 07:18 048 6 gusting 9 22.8
2016-May-28 07:14 061 6 gusting 9 22.8
2016-May-28 07:09 040 4 gusting 8 22.8
2016-May-28 07:04 057 6 gusting 8 22.2
2016-May-28 06:59 057 4 gusting 6 22.2
2016-May-28 06:54 078 5 gusting 6 21.7
2016-May-28 06:49 055 5 gusting 6 21.7
2016-May-28 06:43 046 2 gusting 6 21.1
2016-May-28 06:39 111 1 gusting 4 20.6
2016-May-28 06:33 130 0 gusting 4 20.6
2016-May-28 06:28 140 1 gusting 4 20.0
2016-May-28 06:24 173 20.0
2016-May-28 06:19 198 19.4
2016-May-28 06:13 198 19.4
2016-May-28 06:09 198 0 gusting 3 18.9
2016-May-28 06:04 198 0 gusting 3 18.9
2016-May-28 05:59 199 0 gusting 2 18.9
2016-May-28 05:53 171 18.3
2016-May-28 05:48 171 18.3
2016-May-28 05:43 171 0 gusting 3 17.8
2016-May-28 05:39 171 17.8
2016-May-28 05:34 171 1 gusting 5 17.8
2016-May-28 05:28 175 0 gusting 5 17.8
2016-May-28 05:24 167 3 gusting 5 17.2
2016-May-28 05:19 161 17.2
2016-May-28 05:14 146 1 gusting 5 17.2
2016-May-28 05:09 175 2 gusting 4 16.7
2016-May-28 05:04 155 1 gusting 4 16.7
2016-May-28 04:59 157 0 gusting 4 16.7
2016-May-28 04:54 157 1 gusting 5 16.7
2016-May-28 04:49 155 1 gusting 5 16.7
2016-May-28 04:44 154 3 gusting 5 16.1
2016-May-28 04:38 138 1 gusting 5 16.1
2016-May-28 04:33 177 0 gusting 5 16.1
2016-May-28 04:28 177 3 gusting 5 16.1
2016-May-28 04:24 177 3 gusting 4 16.1
2016-May-28 04:19 177 2 gusting 4 16.1
2016-May-28 04:14 177 1 gusting 5 16.1
2016-May-28 04:09 177 3 gusting 5 16.1
2016-May-28 03:58 177 2 gusting 4 16.1
2016-May-28 03:53 177 2 gusting 4 16.1
2016-May-28 03:48 177 1 gusting 4 16.1
2016-May-28 03:44 177 1 gusting 4 16.1
2016-May-28 03:38 177 1 gusting 5 16.1
2016-May-28 03:33 177 2 gusting 5 16.1
2016-May-28 03:29 177 3 gusting 5 16.1
2016-May-28 03:24 177 3 gusting 4 16.1
2016-May-28 03:18 177 2 gusting 4 16.1
2016-May-28 03:13 177 2 gusting 4 16.7
2016-May-28 03:09 177 16.7
2016-May-28 03:03 177 2 gusting 3 16.7
2016-May-28 02:58 177 1 gusting 3 16.7
2016-May-28 02:54 177 0 gusting 1 16.7
2016-May-28 02:48 177 16.7
2016-May-28 02:43 177 1 gusting 4 16.7
2016-May-28 02:38 177 1 gusting 4 16.7
2016-May-28 02:33 177 2 gusting 4 16.7
2016-May-28 02:29 177 2 gusting 4 16.7
2016-May-28 02:23 177 2 gusting 4 16.7
2016-May-28 02:18 177 2 gusting 4 16.7
2016-May-28 02:14 177 2 gusting 4 16.7
2016-May-28 02:09 177 2 gusting 4 16.7
2016-May-28 02:04 177 2 gusting 4 16.7
2016-May-28 01:58 177 3 gusting 4 16.7
2016-May-28 01:54 177 1 gusting 4 16.7
2016-May-28 01:49 177 0 gusting 4 17.2
2016-May-28 01:44 177 17.2
2016-May-28 01:39 177 2 gusting 3 17.2
2016-May-28 01:33 177 1 gusting 2 17.2
2016-May-28 01:24 177 0 gusting 3 17.2
2016-May-28 01:18 177 17.2
2016-May-28 01:14 177 1 gusting 3 17.2
2016-May-28 01:09 177 1 gusting 4 17.2
2016-May-28 01:03 177 2 gusting 4 17.2
2016-May-28 00:59 177 1 gusting 4 17.2
2016-May-28 00:54 177 2 gusting 4 17.2
2016-May-28 00:44 177 2 gusting 5 17.2
2016-May-28 00:38 177 3 gusting 5 17.2
2016-May-28 00:34 177 2 gusting 4 17.2
2016-May-28 00:29 177 2 gusting 4 17.2
2016-May-28 00:24 177 3 gusting 4 17.2
2016-May-28 00:18 177 17.2
2016-May-28 00:13 177 1 gusting 4 17.2
2016-May-28 00:09 177 2 gusting 4 17.2
2016-May-28 00:03 177 3 gusting 4 17.2
2016-May-27 23:58 177 2 gusting 4 17.8
2016-May-27 23:54 177 2 gusting 4 17.8
2016-May-27 23:49 177 3 gusting 4 17.8
2016-May-27 23:44 177 1 gusting 4 17.8
2016-May-27 23:39 177 1 gusting 3 17.8
2016-May-27 23:34 177 17.8
2016-May-27 23:29 177 17.8
2016-May-27 23:24 177 17.8
2016-May-27 23:14 177 2 gusting 4 18.3
2016-May-27 23:09 177 1 gusting 4 18.3
2016-May-27 23:04 177 2 gusting 4 18.3
2016-May-27 22:59 177 1 gusting 2 18.3
2016-May-27 22:54 177 18.3
2016-May-27 22:49 177 1 gusting 5 18.3
2016-May-27 22:44 177 0 gusting 4 18.3
2016-May-27 22:39 177 1 gusting 4 18.3
2016-May-27 22:34 177 2 gusting 4 18.3
2016-May-27 22:29 177 0 gusting 4 18.3
2016-May-27 22:24 177 1 gusting 4 18.9
2016-May-27 22:18 177 1 gusting 3 18.9
2016-May-27 22:14 177 0 gusting 4 18.9
2016-May-27 22:09 177 2 gusting 4 18.9
2016-May-27 22:04 177 2 gusting 4 18.9
2016-May-27 21:58 177 2 gusting 3 18.9
2016-May-27 21:54 177 1 gusting 4 18.9
2016-May-27 21:49 177 1 gusting 5 18.9
2016-May-27 21:43 178 3 gusting 5 19.4
2016-May-27 21:39 186 3 gusting 5 19.4
2016-May-27 21:34 186 19.4
2016-May-27 21:28 186 1 gusting 4 19.4
2016-May-27 21:24 186 1 gusting 4 19.4
2016-May-27 21:19 186 2 gusting 4 19.4
2016-May-27 21:13 186 2 gusting 4 20.0
2016-May-27 21:08 186 2 gusting 4 20.0
2016-May-27 21:04 186 2 gusting 4 20.0
2016-May-27 20:59 186 2 gusting 4 20.0
2016-May-27 20:54 187 2 gusting 4 20.6
2016-May-27 20:49 153 20.6
2016-May-27 20:44 153 20.6
2016-May-27 20:39 163 2 gusting 4 21.1
2016-May-27 20:29 138 21.7
2016-May-27 20:24 138 21.7
2016-May-27 20:19 138 21.7
2016-May-27 20:14 138 21.7
2016-May-27 20:09 138 22.2
2016-May-27 20:04 138 22.2
2016-May-27 19:59 138 22.2
2016-May-27 19:54 138 22.2
2016-May-27 19:49 138 0 gusting 1 22.8
2016-May-27 19:39 138 22.8
2016-May-27 19:34 138 22.8
2016-May-27 19:29 138 22.8
2016-May-27 19:24 138 22.8
2016-May-27 19:19 132 22.8
2016-May-27 19:14 132 0 gusting 3 23.3
2016-May-27 19:09 123 23.3
2016-May-27 19:04 121 2 gusting 2 23.3
2016-May-27 18:59 116 23.3
2016-May-27 18:54 116 23.3
2016-May-27 18:49 113 23.3
2016-May-27 18:39 108 2 gusting 4 23.3
2016-May-27 18:34 086 1 gusting 4 23.3
2016-May-27 18:29 086 2 gusting 4 23.9
2016-May-27 18:24 086 1 gusting 4 23.9
2016-May-27 18:19 086 2 gusting 4 23.9
2016-May-27 18:14 078 2 gusting 4 24.4
2016-May-27 18:08 078 2 gusting 5 24.4
2016-May-27 18:04 078 3 gusting 4 24.4
2016-May-27 17:59 078 2 gusting 4 24.4
2016-May-27 17:54 142 2 gusting 5 24.4
2016-May-27 17:49 146 3 gusting 5 24.4
2016-May-27 17:39 053 3 gusting 5 24.4
2016-May-27 17:34 053 2 gusting 5 24.4
2016-May-27 17:29 031 1 gusting 3 24.4
2016-May-27 17:24 031 0 gusting 5 23.9
2016-May-27 17:19 031 3 gusting 5 24.4
2016-May-27 17:14 180 25.0
2016-May-27 17:09 180 2 gusting 5 24.4
2016-May-27 17:03 152 0 gusting 5 24.4
2016-May-27 16:54 072 3 gusting 6 23.9
2016-May-27 16:49 048 4 gusting 7 23.9
2016-May-27 16:44 051 6 gusting 8 23.9
2016-May-27 16:39 059 6 gusting 9 24.4
2016-May-27 16:34 069 5 gusting 11 25.0
2016-May-27 16:29 056 6 gusting 7 26.1
2016-May-27 16:24 019 6 gusting 7 26.1
2016-May-27 16:19 097 5 gusting 7 26.1
2016-May-27 16:14 157 1 gusting 6 26.7
2016-May-27 16:08 139 4 gusting 7 26.7
2016-May-27 16:04 112 1 gusting 8 27.2
2016-May-27 15:59 105 4 gusting 8 26.7
2016-May-27 15:54 055 5 gusting 8 26.7
2016-May-27 15:49 128 5 gusting 8 26.7
2016-May-27 15:44 096 2 gusting 8 26.7
2016-May-27 15:39 053 5 gusting 10 26.7
2016-May-27 15:34 146 4 gusting 10 26.7
2016-May-27 15:29 095 6 gusting 9 26.7
2016-May-27 15:24 101 5 gusting 11 26.7
2016-May-27 15:19 138 6 gusting 11 26.7
2016-May-27 15:14 163 2 gusting 10 26.7
2016-May-27 15:09 088 4 gusting 10 26.7
2016-May-27 15:04 125 3 gusting 10 26.7
2016-May-27 14:59 125 5 gusting 10 26.7
2016-May-27 14:54 103 4 gusting 9 26.7
2016-May-27 14:49 126 3 gusting 12 26.7
2016-May-27 14:44 110 7 gusting 13 26.1
2016-May-27 14:39 093 8 gusting 13 26.1
2016-May-27 14:34 091 7 gusting 13 26.1
2016-May-27 14:29 124 6 gusting 13 26.1
2016-May-27 14:24 104 7 gusting 13 26.1
2016-May-27 14:19 075 7 gusting 13 26.1
2016-May-27 14:14 133 6 gusting 11 26.7
2016-May-27 14:09 103 7 gusting 11 26.7
2016-May-27 14:04 047 6 gusting 11 26.7
2016-May-27 13:59 123 6 gusting 11 26.7
2016-May-27 13:54 134 6 gusting 11 26.7
2016-May-27 13:49 117 6 gusting 13 26.7
2016-May-27 13:44 120 8 gusting 13 26.7
2016-May-27 13:39 104 6 gusting 12 26.7
2016-May-27 13:34 107 5 gusting 10 26.7
2016-May-27 13:29 055 5 gusting 15 26.7
2016-May-27 13:24 107 7 gusting 15 26.7
2016-May-27 13:19 089 6 gusting 13 26.7
2016-May-27 13:14 122 8 gusting 13 26.1
2016-May-27 13:09 088 4 gusting 8 26.7
2016-May-27 13:04 131 4 gusting 10 26.1
2016-May-27 12:59 065 6 gusting 11 25.6
2016-May-27 12:54 092 5 gusting 11 25.0
2016-May-27 12:49 034 6 gusting 10 25.6
2016-May-27 12:44 076 5 gusting 9 25.6
2016-May-27 12:39 049 6 gusting 11 25.0
2016-May-27 12:34 081 6 gusting 11 25.6
2016-May-27 12:28 065 6 gusting 9 26.1
2016-May-27 12:24 018 6 gusting 10 25.6
2016-May-27 12:19 054 6 gusting 11 25.0
2016-May-27 12:14 066 6 gusting 10 25.0
2016-May-27 12:09 065 5 gusting 12 25.0
2016-May-27 12:04 066 7 gusting 12 24.4
2016-May-27 11:59 044 7 gusting 16 24.4
2016-May-27 11:54 055 8 gusting 16 23.9
2016-May-27 11:49 034 11 gusting 16 23.9
2016-May-27 11:44 038 7 gusting 15 23.9
2016-May-27 11:39 072 8 gusting 15 23.9
2016-May-27 11:34 059 11 gusting 15 23.9
2016-May-27 11:29 046 9 gusting 15 23.9
2016-May-27 11:24 061 8 gusting 15 23.9
2016-May-27 11:19 066 9 gusting 15 23.3
2016-May-27 11:14 060 9 gusting 15 23.3
2016-May-27 11:09 050 9 gusting 15 23.3
2016-May-27 11:04 051 8 gusting 17 23.9
2016-May-27 10:59 069 10 gusting 17 23.9
2016-May-27 10:53 042 9 gusting 13 23.9
2016-May-27 10:49 030 9 gusting 13 23.9
2016-May-27 10:43 058 8 gusting 15 23.9
2016-May-27 10:39 064 9 gusting 15 23.9
2016-May-27 10:34 049 9 gusting 15 23.3
2016-May-27 10:29 005 9 gusting 13 23.3
2016-May-27 10:24 012 8 gusting 16 23.3
2016-May-27 10:19 063 11 gusting 16 23.3
2016-May-27 10:13 055 8 gusting 13 23.3
2016-May-27 10:09 025 8 gusting 15 23.3
2016-May-27 10:03 040 9 gusting 15 23.3
2016-May-27 09:58 034 6 gusting 10 23.3
2016-May-27 09:54 033 7 gusting 11 22.8
2016-May-27 09:48 051 7 gusting 11 23.3
2016-May-27 09:44 068 6 gusting 10 23.3
2016-May-27 09:38 067 6 gusting 9 23.3
2016-May-27 09:33 063 6 gusting 9 22.8
2016-May-27 09:28 042 6 gusting 10 22.8
2016-May-27 09:23 046 7 gusting 10 22.8
2016-May-27 09:19 355 6 gusting 8 22.8
2016-May-27 09:14 026 6 gusting 8 22.8
2016-May-27 09:09 019 6 gusting 7 22.8
2016-May-27 09:03 355 2 gusting 6 22.8
2016-May-27 08:58 355 5 gusting 7 22.8
2016-May-27 08:54 344 6 gusting 7 22.8
2016-May-27 08:48 360 5 gusting 6 22.8
2016-May-27 08:43 005 5 gusting 6 22.8
2016-May-27 08:38 005 3 gusting 6 22.2
2016-May-27 08:33 005 4 gusting 6 22.2
2016-May-27 08:28 005 4 gusting 6 22.2
2016-May-27 08:24 018 4 gusting 6 22.2
2016-May-27 08:19 348 3 gusting 6 22.2
2016-May-27 08:14 009 3 gusting 6 21.7
2016-May-27 08:09 347 4 gusting 6 21.7
2016-May-27 08:03 032 4 gusting 6 21.7
2016-May-27 07:58 015 4 gusting 6 21.1
2016-May-27 07:53 005 5 gusting 6 21.7
2016-May-27 07:48 013 4 gusting 6 21.7
2016-May-27 07:43 039 4 gusting 6 21.1
2016-May-27 07:38 348 4 gusting 6 21.1
2016-May-27 07:33 351 3 gusting 4 21.1
2016-May-27 07:28 360 3 gusting 6 21.1
2016-May-27 07:24 355 3 gusting 5 21.1
2016-May-27 07:18 022 3 gusting 6 21.1
2016-May-27 07:13 024 3 gusting 5 21.1
2016-May-27 07:09 355 3 gusting 5 20.6
2016-May-27 07:03 360 2 gusting 4 20.6